This demonstration page uses our WeatherBlox Daily Observations layout. Learn more.

Left ArrowRight Arrow

Hourly Observations for February 18, 2019

Temp ( °F °C ) Dew Point ( °F °C ) Humidity (%) Winds ( mph kmh ) Pressure ( in mb ) Visibility ( mi km ) Precip ( " mm )
12:15 am 00:15 Cloudy 30 -1 30 -1 100 100 W 12 19 29.95 1014 10 16 N/A
12:16 am 00:16 Cloudy 30 -1 30 -1 100 100 W 13 20 29.95 1014 10 16 N/A
12:35 am 00:35 Cloudy 30 -1 30 -1 100 100 W 13 20 29.96 1015 10 16 N/A
12:36 am 00:36 Cloudy 30 -1 30 -1 100 100 W 13 20 29.96 1015 10 16 N/A
12:55 am 00:55 Cloudy 30 -1 30 -1 100 100 W 13 20 29.97 1015 10 16 N/A
1:15 am 01:15 Cloudy 30 -1 30 -1 100 100 W 10 17 29.98 1015 10 16 N/A
1:16 am 01:16 Cloudy 30 -1 30 -1 100 100 W 12 19 29.98 1015 10 16 N/A
1:35 am 01:35 Cloudy 30 -1 30 -1 100 100 W 9 15 29.98 1015 10 16 N/A
1:36 am 01:36 Cloudy 30 -1 30 -1 100 100 W 12 19 29.99 1016 10 16 N/A
1:55 am 01:55 Cloudy 30 -1 30 -1 100 100 W 18 30 29.99 1016 10 16 N/A
2:15 am 02:15 Cloudy 30 -1 30 -1 100 100 W 15 24 29.99 1016 10 16 N/A
2:16 am 02:16 Cloudy 30 -1 30 -1 100 100 W 15 24 29.99 1016 10 16 N/A
2:35 am 02:35 Cloudy 30 -1 30 -1 100 100 W 16 26 30.01 1016 10 16 N/A
2:55 am 02:55 Cloudy 30 -1 30 -1 100 100 W 13 20 30.02 1017 10 16 N/A
3:15 am 03:15 Cloudy 30 -1 30 -1 100 100 WNW 14 22 30.02 1017 10 16 N/A
3:16 am 03:16 Cloudy 30 -1 30 -1 100 100 W 14 22 30.03 1017 10 16 N/A
3:35 am 03:35 Cloudy 28 -2 28 -2 100 100 W 12 19 30.03 1017 10 16 N/A
3:55 am 03:55 Cloudy 28 -2 28 -2 100 100 W 13 20 30.04 1017 10 16 N/A
3:56 am 03:56 Cloudy 28 -2 28 -2 100 100 W 14 22 30.04 1017 10 16 N/A
4:15 am 04:15 Cloudy 28 -2 28 -2 100 100 W 17 28 30.04 1017 10 16 N/A
4:16 am 04:16 Cloudy 28 -2 28 -2 100 100 W 17 28 30.04 1017 10 16 N/A
4:35 am 04:35 Cloudy 28 -2 28 -2 100 100 WNW 15 24 30.05 1018 10 16 N/A
4:55 am 04:55 Cloudy 28 -2 28 -2 100 100 WNW 15 24 30.06 1018 10 16 N/A
4:56 am 04:56 Cloudy 28 -2 28 -2 100 100 W 14 22 30.06 1018 10 16 N/A
5:15 am 05:15 Cloudy 28 -2 28 -2 100 100 W 13 20 30.06 1018 10 16 N/A
5:35 am 05:35 Cloudy 28 -2 28 -2 100 100 W 10 17 30.08 1019 10 16 N/A
5:55 am 05:55 Cloudy 28 -2 28 -2 100 100 W 13 20 30.09 1019 10 16 N/A
5:56 am 05:56 Cloudy 28 -2 28 -2 100 100 W 12 19 30.09 1019 10 16 N/A
6:15 am 06:15 Cloudy 28 -2 28 -2 100 100 W 12 19 30.09 1019 10 16 N/A
6:35 am 06:35 Cloudy 28 -2 28 -2 100 100 W 15 24 30.11 1020 10 16 N/A
6:36 am 06:36 Cloudy 28 -2 28 -2 100 100 W 15 24 30.11 1020 10 16 N/A
6:55 am 06:55 Cloudy 28 -2 28 -2 100 100 W 14 22 30.12 1020 10 16 N/A
6:56 am 06:56 Cloudy 28 -2 28 -2 100 100 W 14 22 30.12 1020 10 16 N/A
7:15 am 07:15 Cloudy 28 -2 27 -3 93 93 W 14 22 30.13 1020 10 16 N/A
7:35 am 07:35 Cloudy 28 -2 27 -3 93 93 W 13 20 30.14 1021 10 16 N/A
7:36 am 07:36 Cloudy 28 -2 27 -3 93 93 W 13 20 30.14 1021 10 16 N/A
7:55 am 07:55 Cloudy 27 -3 27 -3 100 100 W 12 19 30.16 1021 10 16 N/A
8:15 am 08:15 Cloudy 28 -2 27 -3 93 93 W 13 20 30.17 1022 10 16 N/A
8:35 am 08:35 Cloudy 28 -2 27 -3 93 93 W 13 20 30.18 1022 10 16 N/A
8:36 am 08:36 Cloudy 28 -2 27 -3 93 93 W 13 20 30.18 1022 10 16 N/A
8:55 am 08:55 Cloudy 28 -2 27 -3 93 93 W 17 28 30.20 1023 10 16 N/A
9:15 am 09:15 Cloudy 28 -2 27 -3 93 93 W 14 22 30.21 1023 10 16 N/A
9:35 am 09:35 Cloudy 28 -2 28 -2 100 100 W 14 22 30.23 1024 5 8 N/A
9:36 am 09:36 Cloudy 28 -2 28 -2 100 100 W 14 22 30.23 1024 5 8 N/A
9:55 am 09:55 Cloudy 28 -2 28 -2 100 100 W 13 20 30.24 1024 7 11 N/A
10:15 am 10:15 Cloudy 28 -2 28 -2 100 100 W 13 20 30.24 1024 7 11 N/A
10:35 am 10:35 Cloudy 28 -2 28 -2 100 100 W 14 22 30.26 1025 5 8 N/A
10:36 am 10:36 Cloudy 28 -2 28 -2 100 100 W 14 22 30.26 1025 5 8 N/A
10:55 am 10:55 Cloudy 28 -2 28 -2 100 100 W 14 22 30.27 1025 7 11 N/A
11:15 am 11:15 Cloudy 28 -2 28 -2 100 100 WNW 13 20 30.29 1026 5 8 N/A
11:16 am 11:16 Cloudy 28 -2 28 -2 100 100 W 10 17 30.29 1026 5 8 N/A
11:35 am 11:35 Cloudy 28 -2 28 -2 100 100 WNW 14 22 30.30 1026 5 8 N/A
11:36 am 11:36 Cloudy 28 -2 28 -2 100 100 WNW 12 19 30.30 1026 5 8 N/A
11:55 am 11:55 Cloudy 28 -2 28 -2 100 100 NNW 14 22 30.31 1027 5 8 N/A
12:15 pm 12:15 Cloudy 28 -2 27 -3 93 93 NW 9 15 30.32 1027 10 16 N/A
12:16 pm 12:16 Cloudy 28 -2 27 -3 93 93 NW 10 17 30.32 1027 10 16 N/A
12:35 pm 12:35 Cloudy 28 -2 25 -4 86 86 NW 9 15 30.34 1028 10 16 N/A
12:55 pm 12:55 Cloudy 28 -2 25 -4 86 86 WNW 14 22 30.34 1028 10 16 N/A
1:15 pm 13:15 Cloudy 28 -2 25 -4 86 86 WNW 9 15 30.34 1028 10 16 N/A
1:16 pm 13:16 Cloudy 28 -2 25 -4 86 86 NW 12 19 30.34 1028 10 16 N/A
1:35 pm 13:35 Cloudy 30 -1 27 -3 86 86 WNW 13 20 30.35 1028 10 16 N/A
1:55 pm 13:55 Cloudy 30 -1 25 -4 80 80 WNW 16 26 30.35 1028 10 16 N/A
1:56 pm 13:56 Cloudy 30 -1 25 -4 80 80 WNW 14 22 30.35 1028 10 16 N/A
2:15 pm 14:15 Mostly Cloudy 28 -2 25 -4 86 86 NW 14 22 30.37 1029 10 16 N/A
2:16 pm 14:16 Mostly Cloudy 28 -2 23 -5 80 80 NW 14 22 30.37 1029 10 16 N/A
2:35 pm 14:35 Mostly Cloudy 30 -1 25 -4 80 80 NW 10 17 30.37 1028 10 16 N/A
2:55 pm 14:55 Mostly Cloudy 30 -1 23 -5 75 75 NW 8 13 30.38 1029 10 16 N/A
2:56 pm 14:56 Mostly Cloudy 30 -1 23 -5 75 75 NW 9 15 30.38 1029 10 16 N/A
3:15 pm 15:15 Cloudy 30 -1 25 -4 80 80 NNW 10 17 30.39 1029 10 16 N/A
3:16 pm 15:16 Cloudy 30 -1 25 -4 80 80 NW 12 19 30.39 1029 10 16 N/A
3:35 pm 15:35 Cloudy 30 -1 23 -5 75 75 NW 12 19 30.41 1030 10 16 N/A
3:55 pm 15:55 Cloudy 28 -2 23 -5 80 80 NNW 10 17 30.42 1030 10 16 N/A
3:56 pm 15:56 Cloudy 28 -2 23 -5 80 80 NNW 12 19 30.42 1030 10 16 N/A
4:15 pm 16:15 Cloudy 28 -2 23 -5 80 80 NNW 9 15 30.43 1031 10 16 N/A
4:16 pm 16:16 Cloudy 28 -2 23 -5 80 80 NNW 8 13 30.43 1031 10 16 N/A
4:35 pm 16:35 Cloudy 28 -2 25 -4 86 86 NNW 7 11 30.43 1031 10 16 N/A
4:55 pm 16:55 Cloudy 28 -2 23 -5 80 80 NNW 9 15 30.44 1031 10 16 N/A
4:56 pm 16:56 Cloudy 28 -2 23 -5 80 80 NW 8 13 30.44 1031 10 16 N/A
5:15 pm 17:15 Cloudy 28 -2 23 -5 80 80 NNW 6 9 30.45 1031 10 16 N/A
5:36 pm 17:36 Cloudy 28 -2 23 -5 80 80 N 5 7 30.46 1032 10 16 N/A
5:55 pm 17:55 Cloudy 28 -2 23 -5 80 80 N 6 9 30.46 1032 10 16 N/A
5:56 pm 17:56 Cloudy 28 -2 23 -5 80 80 N 5 7 30.47 1032 10 16 N/A
6:15 pm 18:15 Cloudy 28 -2 23 -5 80 80 N 6 9 30.48 1032 10 16 N/A
6:35 pm 18:35 Cloudy 28 -2 23 -5 80 80 N 8 13 30.49 1033 10 16 N/A
6:36 pm 18:36 Cloudy 28 -2 23 -5 80 80 N 8 13 30.49 1033 10 16 N/A
6:55 pm 18:55 Cloudy 28 -2 25 -4 86 86 N 7 11 30.50 1033 10 16 N/A
6:56 pm 18:56 Cloudy 28 -2 25 -4 86 86 N 7 11 30.50 1033 10 16 N/A
7:15 pm 19:15 Cloudy 27 -3 25 -4 93 93 NNW 6 9 30.52 1033 10 16 N/A
7:36 pm 19:36 Cloudy 27 -3 25 -4 93 93 WNW 3 6 30.54 1034 10 16 N/A
7:55 pm 19:55 Cloudy 27 -3 25 -4 93 93 WNW 3 6 30.55 1034 10 16 N/A
7:56 pm 19:56 Cloudy 27 -3 25 -4 93 93 WNW 3 6 30.55 1034 10 16 N/A
8:15 pm 20:15 Cloudy 27 -3 25 -4 93 93 WNW 3 6 30.55 1034 7 11 N/A
8:36 pm 20:36 Cloudy 27 -3 27 -3 100 100 NNW 3 6 30.55 1034 5 8 N/A
8:55 pm 20:55 Cloudy 27 -3 27 -3 100 100 NNW 3 6 30.56 1035 7 11 N/A
8:56 pm 20:56 Cloudy 27 -3 27 -3 100 100 NNW 3 6 30.56 1035 7 11 N/A
9:15 pm 21:15 Cloudy 27 -3 27 -3 100 100 NNW 3 6 30.57 1035 7 11 N/A
9:35 pm 21:35 Cloudy 27 -3 27 -3 100 100 N N/A 30.58 1035 10 16 N/A
9:36 pm 21:36 Cloudy 27 -3 27 -3 100 100 NNW 3 6 30.58 1035 10 16 N/A
9:55 pm 21:55 Cloudy 27 -3 27 -3 100 100 NNW 3 6 30.58 1035 10 16 N/A
9:56 pm 21:56 Cloudy 27 -3 27 -3 100 100 NNW 3 6 30.58 1035 10 16 N/A

Powered by AerisWeather